Location: �clusier
(49.9361°N, 2.7869°E)
Time: 08:46:47
(UTC+00:00)

Cosmos 2061 Rocket - Pass Details

Date: 16 June 2021
Orbit: 965 x 1013 km, 82.9° (Epoch: 31 July)

Event Time Altitude Azimuth Distance (km) Brightness Sun altitude
Rises 21:14:58 0° 352° (N) 3,762 8.3 -9.1°
Reaches altitude 10° 21:17:34 10° 356° (N) 2,808 7.4 -9.3°
Maximum altitude 21:23:59 62° 77° (ENE) 1,133 4.3 -9.9°
Enters shadow 21:29:46 13° 156° (SSE) 2,581 5.6 -10.4°
